Regional Weather Roundup
Issued by NWS

Home | Current Version | Previous Version | Graphics & Text | Print | Product List | Glossary On
Versions: 1 2 3 4 5 6 7 8 9 10 11 12 13 14 15 16 17 18 19 20 21 22 23 24 25 26 27 28 29 30 31 32 33 34 35 36 37 38 39 40 41 42 43 44 45 46 47 48 49 50
000
ASUS43 KFSD 222310
RWRSD

WEATHER ROUNDUP FOR SOUTH DAKOTA
NATIONAL WEATHER SERVICE SIOUX FALLS SD
600 PM CDT SUN OCT 22 2017

NOTE: "FAIR" INDICATES FEW OR NO CLOUDS BELOW 12,000 FEET WITH NO
SIGNIFICANT WEATHER AND/OR OBSTRUCTIONS TO VISIBILITY.


SDZ001>005-009-010-012>017-230000-
NORTHWEST AND NORTH CENTRAL SOUTH DAKOTA

CITY           SKY/WX    TMP DP  RH WIND       PRES   REMARKS
BUFFALO          N/A     68  30  24 W24       29.67F
MOBRIDGE       PTCLDY    66  33  29 S12       29.71F
$$

SDZ012>016-024>037-041>051-057-063-072>074-230000-
SOUTHWEST AND SOUTH CENTRAL SOUTH DAKOTA

CITY           SKY/WX    TMP DP  RH WIND       PRES   REMARKS
RAPID CTY ARPT CLEAR     68  29  23 W15       29.84S
PIERRE         CLEAR     68  32  26 SW12      29.78F
CUSTER         CLEAR     56  26  31 W13G25    29.94S
ELLSWORTH AFB  CLEAR     69  29  23 W16       29.83
PHILIP         CLEAR     70  30  22 SW15      29.81S
PINE RIDGE     CLEAR     67  30  25 W9        29.89F
SPEARFISH      FAIR      64  30  27 W16G24    29.83F
WINNER         FAIR      66  35  31 SW8       29.86S
$$

SDZ004>011-016>023-039-040-230000-
NORTHEAST SOUTH DAKOTA

CITY           SKY/WX    TMP DP  RH WIND       PRES   REMARKS
ABERDEEN       PTCLDY    64  28  25 S14       29.77F
WATERTOWN      CLOUDY    59  32  36 SW12      29.82F
BROOKINGS      CLEAR     62  30  29 SW10      29.86F
SISSETON         N/A     63  32  31 S12       29.78F
$$

SDZ017-020-022-023-036>040-048>070-230000-
SOUTHEAST SOUTH DAKOTA

CITY           SKY/WX    TMP DP  RH WIND       PRES   REMARKS
SIOUX FALLS    PTCLDY    65  30  27 SW9       29.89F
HURON          CLEAR     63  33  32 SW6       29.82F
CHAMBERLAIN    CLEAR     67  35  30 SW8       29.84S
MITCHELL       CLEAR     67  30  25 SW7       29.85F
YANKTON        CLEAR     66  30  26 S9        29.90F
$$

ABBREVIATIONS USED IN REMARKS
   TC - TEMPERATURE IN CELSIUS
  WCI - WIND CHILL INDEX
   HX - HEAT INDEX
  VSB - VISIBILITY





USA.gov is the U.S. government's official web portal to all federal, state and local government web resources and services.